{"data":{"norad_id":48381,"epoch":"2026-09-19T05:21:19.492992Z","epoch_age_seconds":143961,"freshness":"FRESH","line1":"1 48381U 21038AE  26262.22314228  .00000136  00000+0  16149-4 0  9994","line2":"2 48381  53.1585 167.6831 0001452  89.0680 271.0488 15.31700727296873","mean_motion":15.31700727,"eccentricity":0.0001452,"inclination_deg":53.1585,"raan_deg":167.6831,"arg_perigee_deg":89.068,"mean_anomaly_deg":271.0488,"bstar":1.6149e-5,"rev_number":29687,"period_min":94.013143339064,"perigee_km":469.7433714523,"apogee_km":471.73228470237,"semimajor_km":6848.8748280773,"source":"CELESTRAK","updated_at":"2026-09-20T09:00:38.944152Z"}}